DB0MAK-13 Weather Reports


Display with metric or nautical units.
time (UTC)temp
F
wind
direction
speed
MPH
gust
MPH
rain 1hr
in
rain 24hr
in
rain mn
in
humidity
%
barometer
mb
20260506082307 55 203 1.0 12.0 0.00 0.32 0.00 82 1005.7
20260506081607 55 235 4.0 12.0 0.00 0.32 0.00 81 1005.6
20260506081404 55 237 4.0 12.0 0.00 0.32 0.00 82 1005.6
20260506080909 55 179 3.0 9.0 0.00 0.32 0.00 82 1005.6
20260506080404 55 203 6.0 9.0 0.00 0.32 0.00 81 1005.6
20260506080209 55 175 4.0 9.0 0.00 0.32 0.00 81 1005.5
20260506073404 55 233 6.0 16.0 0.00 0.32 0.00 82 1005.2
20260506072709 55 195 1.0 12.0 0.00 0.32 0.00 84 1005.2
20260506072404 55 209 6.0 12.0 0.00 0.32 0.00 83 1005.2
20260506072009 54 247 4.0 9.0 0.00 0.32 0.00 83 1005.2
20260506071404 55 177 4.0 14.0 0.00 0.32 0.00 84 1005.2
20260506070405 54 247 1.0 14.0 0.00 0.32 0.00 84 1005.1
20260506062404 53 220 3.0 9.0 0.00 0.32 0.00 88 1005.2
20260506061707 53 197 1.0 6.0 0.00 0.32 0.00 88 1005.2
20260506061404 53 226 1.0 11.0 0.00 0.32 0.00 88 1005.4
20260506061007 52 209 1.0 11.0 0.00 0.32 0.00 89 1005.4
20260506060404 52 204 3.0 8.0 0.00 0.32 0.00 88 1005.4
20260506060307 52 192 1.0 8.0 0.00 0.32 0.00 88 1005.4
20260506051404 52 241 4.0 17.0 0.00 0.32 0.00 89 1005.4
20260506050707 52 237 9.0 17.0 0.00 0.32 0.00 89 1005.2
20260506050404 52 247 8.0 16.0 0.00 0.32 0.00 90 1005.2
20260506044607 52 249 4.0 16.0 0.00 0.32 0.00 91 1005.2
20260506044404 52 243 4.0 16.0 0.00 0.32 0.00 91 1005.4
20260506043907 52 237 8.0 19.0 0.00 0.32 0.00 92 1005.2
20260506043404 52 240 9.0 19.0 0.00 0.32 0.00 92 1005.1
20260506043207 52 250 4.0 12.0 0.00 0.32 0.00 92 1005.2
20260506042507 52 242 6.0 16.0 0.00 0.32 0.00 92 1005.1
20260506042404 52 243 6.0 16.0 0.00 0.32 0.00 92 1005.1
20260506041807 52 241 8.0 19.0 0.00 0.32 0.00 92 1005.1
20260506041404 52 246 6.0 19.0 0.00 0.32 0.00 92 1005.0
20260506041107 52 245 6.0 19.0 0.00 0.32 0.00 92 1004.9
20260506040404 52 230 4.0 14.0 0.00 0.32 0.00 92 1004.9
20260506035404 52 238 3.0 12.0 0.00 0.32 0.00 92 1004.9
20260506035009 52 212 3.0 12.0 0.00 0.32 0.00 92 1004.9
20260506034404 52 212 3.0 8.0 0.00 0.32 0.00 92 1004.7
20260506034307 52 212 3.0 8.0 0.00 0.32 0.00 92 1004.9
20260506033607 52 214 1.0 8.0 0.00 0.32 0.00 92 1005.0
20260506033404 52 219 1.0 8.0 0.00 0.32 0.00 92 1005.0
20260506032404 52 247 3.0 9.0 0.00 0.32 0.00 92 1005.0
20260506032207 52 0 0.0 9.0 0.00 0.32 0.00 91 1005.0
20260506031507 52 0 0.0 11.0 0.00 0.32 0.00 91 1005.1
20260506031404 52 217 1.0 11.0 0.00 0.32 0.00 91 1005.0
20260506030807 52 228 3.0 11.0 0.00 0.32 0.00 91 1004.9
20260506030404 52 200 3.0 11.0 0.00 0.32 0.00 91 1005.0
20260506030107 52 201 3.0 12.0 0.00 0.32 0.00 91 1004.9
20260506025404 52 205 4.0 12.0 0.00 0.32 0.00 91 1004.9
20260506024707 52 206 4.0 11.0 0.00 0.32 0.00 91 1004.9
20260506024404 52 210 1.0 11.0 0.00 0.32 0.00 91 1004.9
20260506023404 52 214 1.0 11.0 0.00 0.32 0.00 91 1004.9
20260506023309 52 209 1.0 11.0 0.00 0.32 0.00 91 1005.0
20260506022607 52 219 3.0 8.0 0.00 0.32 0.00 91 1005.2
20260506022404 52 224 1.0 8.0 0.00 0.32 0.00 91 1005.1
20260506021907 52 231 3.0 12.0 0.00 0.32 0.00 91 1005.2
20260506021404 52 208 1.0 12.0 0.00 0.32 0.00 91 1005.2
20260506021209 52 219 4.0 12.0 0.00 0.32 0.00 91 1005.2
20260506020507 52 208 1.0 14.0 0.00 0.32 0.00 91 1005.2
20260506020404 52 0 0.0 14.0 0.00 0.32 0.00 92 1005.2
20260506015807 52 201 6.0 14.0 0.00 0.32 0.00 91 1005.0
20260506015404 52 192 6.0 12.0 0.00 0.32 0.00 92 1005.1
20260506015107 52 199 6.0 12.0 0.00 0.32 0.00 92 1005.1
20260506014404 52 210 3.0 11.0 0.00 0.32 0.00 92 1005.0
20260506013404 52 220 1.0 12.0 0.00 0.32 0.00 92 1005.1
20260506013007 52 221 1.0 12.0 0.00 0.32 0.00 92 1005.1
20260506012404 52 213 4.0 9.0 0.00 0.32 0.00 92 1005.1
20260506011607 52 217 1.0 12.0 0.00 0.32 0.00 92 1005.1
20260506011404 52 224 1.0 12.0 0.00 0.32 0.00 92 1005.1
20260506010907 52 217 4.0 12.0 0.00 0.32 0.00 91 1005.2
20260506010404 52 205 1.0 6.0 0.00 0.32 0.00 91 1005.2
20260506010207 52 219 3.0 6.0 0.00 0.32 0.00 91 1005.2
20260506005507 52 201 1.0 12.0 0.00 0.32 0.00 92 1005.2
20260506005404 52 209 1.0 12.0 0.00 0.32 0.00 91 1005.2
20260506004809 52 241 1.0 6.0 0.00 0.32 0.00 92 1005.2
20260506004404 52 234 3.0 6.0 0.00 0.32 0.00 91 1005.2
20260506004107 52 225 1.0 6.0 0.00 0.32 0.00 91 1005.2
20260506003404 52 227 3.0 6.0 0.00 0.32 0.00 91 1005.2
20260506002707 52 227 3.0 12.0 0.00 0.32 0.00 91 1005.4
20260506002404 52 220 8.0 12.0 0.00 0.32 0.00 92 1005.5
20260506002007 52 225 4.0 16.0 0.00 0.32 0.00 92 1005.5
20260506001404 52 217 8.0 16.0 0.00 0.32 0.00 92 1005.5
20260506001309 52 217 6.0 16.0 0.00 0.32 0.00 92 1005.6
20260506000404 52 208 3.0 6.0 0.00 0.32 0.00 92 1005.5
20260505235907 52 0 0.0 6.0 0.00 0.32 0.00 92 1005.6
20260505235404 52 228 1.0 8.0 0.00 0.32 0.00 92 1005.6
20260505235207 52 0 0.0 11.0 0.00 0.32 0.00 92 1005.6
20260505234404 52 246 4.0 11.0 0.00 0.32 0.00 92 1005.6
20260505233809 52 233 3.0 8.0 0.00 0.32 0.00 92 1005.7
20260505233404 52 242 3.0 8.0 0.00 0.32 0.00 92 1005.7
20260505233107 52 251 1.0 8.0 0.00 0.32 0.00 92 1005.7
20260505232404 52 216 3.0 8.0 0.00 0.32 0.00 93 1005.6
20260505231707 52 224 1.0 8.0 0.00 0.32 0.00 93 1005.6
20260505231404 52 231 1.0 8.0 0.00 0.32 0.00 93 1005.6
20260505231007 52 0 0.0 6.0 0.00 0.32 0.00 93 1005.6
20260505230404 52 259 3.0 6.0 0.00 0.32 0.00 93 1005.5
20260505230309 52 243 1.0 6.0 0.00 0.32 0.00 93 1005.6
20260505225609 52 216 1.0 4.0 0.00 0.32 0.00 93 1005.6
20260505225404 52 0 0.0 6.0 0.00 0.32 0.00 93 1005.6
20260505224404 52 0 0.0 3.0 0.00 0.32 0.00 93 1005.6
20260505224209 52 0 0.0 3.0 0.00 0.32 0.00 93 1005.5
20260505223507 51 0 0.0 1.0 0.00 0.32 0.00 93 1005.6
20260505223404 51 0 0.0 1.0 0.00 0.32 0.00 93 1005.5
20260505222809 51 0 0.0 1.0 0.00 0.32 0.00 93 1005.6
20260505222404 51 0 0.0 1.0 0.00 0.32 0.00 93 1005.5
20260505222109 51 0 0.0 1.0 0.00 0.32 0.00 93 1005.5
20260505221404 51 0 0.0 0.0 0.00 0.32 0.00 93 1005.5
20260505220707 51 0 0.0 1.0 0.00 0.32 0.00 93 1005.5
20260505220404 51 0 0.0 1.0 0.00 0.32 0.00 93 1005.6
20260505220009 51 0 0.0 1.0 0.00 0.32 0.00 93 1005.7
20260505215404 51 0 0.0 3.0 0.00 0.32 0.00 93 1005.6
20260505214607 51 0 0.0 3.0 0.00 0.32 0.00 93 1005.7
20260505214404 51 0 0.0 3.0 0.00 0.32 0.00 93 1005.7
20260505213907 51 0 0.0 4.0 0.00 0.32 0.00 93 1005.7
20260505213404 51 0 0.0 4.0 0.00 0.32 0.00 93 1005.7
20260505212509 51 244 1.0 4.0 0.00 0.32 0.00 93 1005.9
20260505212404 51 297 1.0 4.0 0.00 0.32 0.00 93 1005.9
20260505211807 51 0 0.0 3.0 0.00 0.32 0.00 93 1005.7
20260505211404 51 0 0.0 3.0 0.00 0.32 0.00 93 1005.9
20260505211107 51 0 0.0 0.0 0.00 0.32 0.00 93 1006.0
20260505210404 51 0 0.0 1.0 0.00 0.32 0.00 93 1005.9
20260505205707 51 0 0.0 1.0 0.00 0.32 0.00 92 1005.7
20260505205404 52 0 0.0 3.0 0.00 0.32 0.00 92 1005.7
20260505205009 52 0 0.0 3.0 0.00 0.32 0.00 92 1005.9
20260505204404 52 0 0.0 3.0 0.00 0.32 0.00 92 1005.7
20260505204309 52 0 0.0 3.0 0.00 0.32 0.00 92 1005.6
20260505203609 52 0 0.0 1.0 0.00 0.32 0.00 92 1005.7
20260505203404 52 0 0.0 1.0 0.00 0.32 0.00 92 1005.6
20260505202404 52 0 0.0 1.0 0.00 0.32 0.00 91 1005.6
20260505202210 52 0 0.0 1.0 0.00 0.32 0.00 91 1005.7
20260505201404 52 0 0.0 0.0 0.00 0.32 0.00 91 1005.5
20260505200404 52 0 0.0 1.0 0.00 0.32 0.00 91 1005.4
20260505195404 52 0 0.0 1.0 0.00 0.32 0.00 91 1005.0
20260505194404 52 0 0.0 3.0 0.00 0.32 0.00 90 1005.0
20260505194009 53 0 0.0 4.0 0.00 0.32 0.00 90 1004.9
20260505193404 53 0 0.0 6.0 0.00 0.32 0.00 90 1004.9
20260505193309 53 289 1.0 6.0 0.00 0.32 0.00 90 1004.7
20260505192404 53 0 0.0 16.0 0.00 0.32 0.00 90 1004.7
20260505191909 53 304 1.0 14.0 0.00 0.32 0.00 90 1004.7
20260505191404 53 317 4.0 16.0 0.00 0.32 0.00 90 1004.6
20260505191209 53 307 6.0 16.0 0.01 0.32 0.00 90 1004.7
20260505190509 53 313 4.0 16.0 0.02 0.32 0.00 90 1004.7
20260505190405 53 318 4.0 19.0 0.02 0.32 0.00 90 1004.7
20260505185404 53 308 6.0 14.0 0.09 0.32 0.00 89 1004.6
20260505185109 53 314 1.0 16.0 0.11 0.32 0.00 89 1004.7
20260505184404 53 296 6.0 16.0 0.21 0.32 0.00 89 1005.1
20260505183709 53 0 0.0 6.0 0.31 0.32 0.00 89 1005.1
20260505183404 53 0 0.0 6.0 0.32 0.32 0.00 89 1005.2
20260505182404 53 0 0.0 6.0 0.31 0.31 0.00 89 1005.4
20260505181607 54 0 0.0 20.0 0.31 0.31 0.00 88 1005.1
20260505181404 54 274 1.0 20.0 0.31 0.31 0.00 88 1005.2
20260505180404 54 264 11.0 17.0 0.28 0.28 0.00 87 1005.2
20260505180209 54 263 11.0 35.0 0.28 0.28 0.00 86 1005.2
20260505175509 54 274 12.0 35.0 0.23 0.23 0.00 85 1005.2
20260505175404 54 270 11.0 30.0 0.22 0.22 0.00 85 1005.2
20260505174809 55 277 17.0 30.0 0.16 0.16 0.00 83 1005.2
20260505174404 56 251 16.0 32.0 0.10 0.10 0.00 81 1005.2
20260505173404 60 224 12.0 37.0 0.00 0.00 0.00 72 1005.2
20260505172707 62 233 20.0 33.0 0.00 0.00 0.00 65 1005.0
20260505172404 63 265 3.0 8.0 0.00 0.00 0.00 67 1004.5
20260505171404 63 0 0.0 11.0 0.00 0.00 0.00 67 1003.7
20260505171309 63 323 1.0 11.0 0.00 0.00 0.00 67 1003.7
20260505170609 63 324 4.0 11.0 0.00 0.00 0.00 67 1003.7
20260505170404 64 341 1.0 8.0 0.00 0.00 0.00 67 1003.7
20260505165909 64 0 0.0 9.0 0.00 0.00 0.00 67 1003.6
20260505165404 64 26 3.0 9.0 0.00 0.00 0.00 66 1003.7
20260505165207 64 20 1.0 9.0 0.00 0.00 0.00 66 1003.7
20260505164509 64 24 3.0 12.0 0.00 0.00 0.00 66 1003.7
20260505164404 64 32 3.0 12.0 0.00 0.00 0.00 67 1003.7
20260505163807 64 24 3.0 12.0 0.00 0.00 0.00 67 1003.7
20260505163404 64 25 1.0 17.0 0.00 0.00 0.00 68 1003.7
20260505163107 64 21 1.0 17.0 0.00 0.00 0.00 67 1003.7
20260505162404 64 9 4.0 14.0 0.00 0.00 0.00 66 1004.0
20260505161404 65 38 8.0 24.0 0.00 0.00 0.00 66 1004.1
20260505161007 65 36 8.0 24.0 0.00 0.00 0.00 66 1004.2
20260505160404 65 29 4.0 19.0 0.00 0.00 0.00 66 1004.1
20260505160307 65 19 8.0 19.0 0.00 0.00 0.00 66 1004.2
20260505152809 65 20 3.0 12.0 0.00 0.00 0.00 67 1004.4
20260505152404 65 23 4.0 14.0 0.00 0.00 0.00 67 1004.4
20260505152109 65 33 4.0 17.0 0.00 0.00 0.00 68 1004.5
20260505151404 65 24 3.0 17.0 0.00 0.00 0.00 68 1004.6
20260505150404 65 33 6.0 22.0 0.00 0.00 0.00 66 1004.6
20260505140404 66 341 4.0 16.0 0.00 0.00 0.00 62 1004.7
20260505130107 67 339 3.0 19.0 0.00 0.00 0.00 59 1005.2
20260505124707 68 19 4.0 14.0 0.00 0.00 0.00 58 1005.2
20260505124404 69 7 4.0 17.0 0.00 0.00 0.00 58 1005.2
20260505124007 69 322 1.0 17.0 0.00 0.00 0.00 59 1005.2
20260505123404 68 325 6.0 19.0 0.00 0.00 0.00 58 1005.2
20260505122607 67 321 9.0 17.0 0.00 0.00 0.00 57 1005.2
20260505122404 67 328 4.0 16.0 0.00 0.00 0.00 58 1005.2
20260505121907 67 324 6.0 22.0 0.00 0.00 0.00 59 1005.2
20260505121404 67 329 8.0 22.0 0.00 0.00 0.00 58 1005.2
20260505121207 67 325 9.0 19.0 0.00 0.00 0.00 59 1005.2
20260505120507 68 303 6.0 14.0 0.00 0.00 0.00 59 1005.2
20260505120405 68 312 4.0 22.0 0.00 0.00 0.00 60 1005.2
20260505115809 68 328 1.0 22.0 0.00 0.00 0.00 58 1005.4
20260505115404 68 323 11.0 19.0 0.00 0.00 0.00 58 1005.4
20260505115107 69 319 9.0 22.0 0.00 0.00 0.00 58 1005.2
20260505114404 69 318 14.0 22.0 0.00 0.00 0.00 56 1005.5
20260505113707 70 311 4.0 12.0 0.00 0.00 0.00 55 1005.5
20260505113404 69 27 1.0 11.0 0.00 0.00 0.00 52 1005.5
20260505113009 69 84 1.0 11.0 0.00 0.00 0.00 51 1005.5
20260505112404 69 43 3.0 12.0 0.00 0.00 0.00 54 1005.6
20260505112307 69 53 3.0 12.0 0.00 0.00 0.00 55 1005.6
20260505111404 68 6 1.0 11.0 0.00 0.00 0.00 58 1005.7
20260505110907 67 0 0.0 16.0 0.00 0.00 0.00 59 1005.7
20260505110404 67 24 3.0 16.0 0.00 0.00 0.00 58 1005.6
20260505110207 68 48 6.0 16.0 0.00 0.00 0.00 59 1005.7
20260505102007 69 80 3.0 14.0 0.00 0.00 0.00 55 1006.0
20260505101405 68 84 4.0 11.0 0.00 0.00 0.00 56 1006.2
20260505101307 69 68 4.0 11.0 0.00 0.00 0.00 55 1006.2
20260505100607 67 73 6.0 12.0 0.00 0.00 0.00 56 1006.2
20260505100404 67 70 6.0 12.0 0.00 0.00 0.00 56 1006.2
20260505095404 67 68 9.0 17.0 0.00 0.00 0.00 58 1006.4
20260505095207 67 81 4.0 17.0 0.00 0.00 0.00 58 1006.4
20260505094507 67 0 0.0 9.0 0.00 0.00 0.00 59 1006.6
20260505094404 67 0 0.0 9.0 0.00 0.00 0.00 59 1006.5
20260505093807 66 71 6.0 14.0 0.00 0.00 0.00 58 1006.7
20260505093404 66 81 4.0 14.0 0.00 0.00 0.00 59 1006.7
20260505093107 66 77 6.0 16.0 0.00 0.00 0.00 61 1006.7
20260505092404 66 75 9.0 16.0 0.00 0.00 0.00 60 1006.7
20260505091707 66 117 1.0 14.0 0.00 0.00 0.00 60 1006.9
20260505091404 65 96 6.0 14.0 0.00 0.00 0.00 62 1006.7
20260505091009 65 73 4.0 14.0 0.00 0.00 0.00 61 1007.0
20260505090404 65 72 3.0 16.0 0.00 0.00 0.00 63 1007.1
20260505090307 65 76 3.0 16.0 0.00 0.00 0.00 63 1007.0
20260505085609 65 87 4.0 14.0 0.00 0.00 0.00 63 1007.1
20260505085404 65 76 4.0 12.0 0.00 0.00 0.00 62 1007.2
20260505084404 65 107 1.0 8.0 0.00 0.00 0.00 66 1007.2
20260505083507 63 145 1.0 6.0 0.00 0.00 0.00 69 1007.2
20260505083404 63 138 1.0 8.0 0.00 0.00 0.00 69 1007.2
20260505082809 63 101 3.0 9.0 0.00 0.00 0.00 68 1007.2
20260505082404 63 90 3.0 9.0 0.00 0.00 0.00 70 1007.4